Simultaneous Nadir Overpasses (SNOs) Predictions

Prediction of SNOs between LANDSAT-8 and METOP-A Satellite Orbit:

Table of predicted SNOs for the next 14.0 days since TLE Epoch: 8/4/2017
Index Date (LANDSAT-8) Time (LANDSAT-8) Lat,Lon (LANDSAT-8) SZA (LANDSAT-8 ) Date (METOP-A) Time (METOP-A) Lat,Lon (METOP-A) SZA (METOP-A ) Distance(km) Time Diff (sec)
1 08/07/2017 12:09:27 -81.22,-140.70 112.92 08/07/2017 12:08:54 -81.23,-140.63 112.93 1.32 33
2 08/07/2017 12:58:52 81.25, 27.40 67.16 08/07/2017 12:59:32 81.25, 27.59 67.20 3.29 40
3 08/10/2017 07:43:43 -81.23, -74.16 112.09 08/10/2017 07:43:14 -81.23, -74.01 112.09 2.57 29
4 08/10/2017 08:33:09 81.23, 93.53 67.93 08/10/2017 08:33:54 81.24, 93.40 67.94 2.25 45
5 08/13/2017 03:17:59 -81.23, -7.66 111.23 08/13/2017 03:17:35 -81.23, -7.80 111.26 2.55 24
6 08/13/2017 04:07:25 81.24, 160.01 68.79 08/13/2017 04:08:14 81.24, 159.97 68.81 0.83 49
7 08/15/2017 22:52:14 -81.24, 58.82 110.34 08/15/2017 22:51:54 -81.23, 58.78 110.36 0.83 20
8 08/15/2017 23:41:40 81.24,-133.54 69.67 08/15/2017 23:42:33 81.24,-133.48 69.71 1.19 53
9 08/18/2017 18:26:30 -81.24, 125.26 109.43 08/18/2017 18:26:14 -81.24, 125.34 109.43 1.39 16




NCC Satellite Simultaneous Nadir Overpasses (SNOs) Prediction Service
